Laconia, NH

11:32 AM EDT on July 26, 2017 (GMT -0400)
Laconia Municipal

Weather History for KLCI - November, 2012

Change the Weather History Date:

Tuesday, November 13, 2012

  Actual Average Record
Temperature  
Mean Temperature 45 °F -  
Max Temperature 62 °F 46 °F 62 °F (2012)
Min Temperature 28 °F 28 °F 14 °F (1988)
Degree Days  
Heating Degree Days 20    
Moisture  
Dew Point 38 °F    
Average Humidity 71    
Maximum Humidity 87    
Minimum Humidity 52    
Precipitation  
Precipitation 0.07 in - - ()
Sea Level Pressure  
Sea Level Pressure 30.22 in    
Wind  
Wind Speed 11 mph (WSW)    
Max Wind Speed 17 mph    
Max Gust Speed 37 mph    
Visibility 10 miles    
Events      
Averages and records for this station are not official NWS values.
T = Trace of Precipitation, MM = Missing Value Source: NWS Daily Summary

Daily Weather History Graph

Daily Weather History Graph

Search for Another Location

Airport or City:

Trip Planner

Search our weather history database for the weather conditions in past years. The results will help you decide how hot, cold, wet, or windy it might be!

Date:

Astronomy

Nov. 13, 2012 Rise Set
Actual Time 6:37 AM EST 4:22 PM EST
Civil Twilight 6:06 AM EST 4:52 PM EST
Nautical Twilight 5:32 AM EST 5:27 PM EST
Astronomical Twilight 4:58 AM EST 6:01 PM EST
Moon 6:12 AM EST (11/13) 4:11 PM EST (11/13)
Length of Visible Light 10h 46m
Length of Day
9h 44m
Waning Crescent, 0% of the Moon is Illuminated
Nov 13
Waning Crescent
Nov 13
New
Nov 20
First Quarter
Nov 28
Full
Dec 6
Last Quarter

Hourly Weather History & Observations

Time (EST) Temp. Windchill Dew Point Humidity Pressure Visibility Wind Dir Wind Speed Gust Speed Precip Events Conditions
12:15 AM 60.8 °F - 53.6 °F 77% 30.16 in 10.0 mi South 15.0 mph 21.9 mph N/A   Overcast
12:35 AM 60.8 °F - 53.6 °F 77% 30.14 in 10.0 mi South 12.7 mph 26.5 mph N/A   Overcast
12:55 AM 60.8 °F - 53.6 °F 77% 30.14 in 10.0 mi South 16.1 mph 26.5 mph N/A   Overcast
1:15 AM 60.8 °F - 53.6 °F 77% 30.13 in 10.0 mi SSW 13.8 mph 24.2 mph N/A   Overcast
1:35 AM 60.8 °F - 53.6 °F 77% 30.11 in 10.0 mi South 17.3 mph 24.2 mph N/A   Mostly Cloudy
1:55 AM 60.8 °F - 53.6 °F 77% 30.10 in 10.0 mi South 13.8 mph 26.5 mph N/A   Partly Cloudy
2:15 AM 60.8 °F - 53.6 °F 77% 30.10 in 10.0 mi South 15.0 mph 21.9 mph N/A   Scattered Clouds
2:35 AM 62.6 °F - 53.6 °F 72% 30.09 in 10.0 mi South 13.8 mph 21.9 mph N/A   Scattered Clouds
2:55 AM 62.6 °F - 53.6 °F 72% 30.07 in 10.0 mi South 15.0 mph 23.0 mph N/A   Scattered Clouds
3:15 AM 62.6 °F - 53.6 °F 72% 30.06 in 10.0 mi South 10.4 mph 20.7 mph N/A   Partly Cloudy
3:35 AM 62.6 °F - 53.6 °F 72% 30.05 in 10.0 mi South 10.4 mph 24.2 mph N/A   Partly Cloudy
3:55 AM 62.6 °F - 55.4 °F 77% 30.06 in 10.0 mi South 16.1 mph 21.9 mph N/A   Mostly Cloudy
4:15 AM 62.6 °F - 55.4 °F 77% 30.06 in 10.0 mi South 17.3 mph 27.6 mph N/A   Overcast
4:35 AM 62.6 °F - 55.4 °F 77% 30.05 in 10.0 mi South 13.8 mph 20.7 mph N/A   Mostly Cloudy
4:55 AM 62.6 °F - 55.4 °F 77% 30.05 in 10.0 mi South 12.7 mph 23.0 mph N/A   Scattered Clouds
5:15 AM 62.6 °F - 55.4 °F 77% 30.03 in 10.0 mi South 12.7 mph 23.0 mph N/A   Mostly Cloudy
5:35 AM 57.2 °F - 51.8 °F 82% 30.08 in 7.0 mi West 15.0 mph 36.8 mph 0.04 in   Overcast
5:55 AM 51.8 °F - 46.4 °F 82% 30.10 in 10.0 mi West 10.4 mph - 0.04 in   Overcast
6:15 AM 51.8 °F - 44.6 °F 76% 30.12 in 8.0 mi West 6.9 mph 18.4 mph N/A   Overcast
6:35 AM 51.8 °F - 44.6 °F 76% 30.14 in 8.0 mi WSW 9.2 mph 16.1 mph 0.01 in   Overcast
6:55 AM 50.0 °F - 44.6 °F 82% 30.15 in 8.0 mi WSW 13.8 mph - 0.01 in   Overcast
7:15 AM 50.0 °F - 44.6 °F 82% 30.14 in 9.0 mi West 5.8 mph - N/A   Overcast
7:35 AM 50.0 °F - 44.6 °F 82% 30.14 in 10.0 mi SSW 5.8 mph - N/A   Overcast
7:55 AM 48.2 °F - 44.6 °F 87% 30.15 in 10.0 mi WSW 8.1 mph - N/A   Overcast
8:15 AM 48.2 °F - 42.8 °F 82% 30.16 in 10.0 mi WSW 12.7 mph 17.3 mph N/A   Overcast
8:35 AM 48.2 °F - 42.8 °F 82% 30.16 in 10.0 mi SW 8.1 mph - N/A   Overcast
8:55 AM 48.2 °F - 42.8 °F 82% 30.16 in 10.0 mi WSW 11.5 mph - N/A   Overcast
9:15 AM 48.2 °F - 41.0 °F 76% 30.17 in 10.0 mi WSW 11.5 mph 17.3 mph N/A   Overcast
9:35 AM 48.2 °F - 39.2 °F 71% 30.18 in 10.0 mi West 11.5 mph 18.4 mph N/A   Overcast
9:55 AM 46.4 °F 40.7 °F 39.2 °F 76% 30.21 in 8.0 mi West 12.7 mph 19.6 mph N/A   Overcast
10:15 AM 46.4 °F 41.5 °F 39.2 °F 76% 30.22 in 6.0 mi WSW 10.4 mph - N/A   Overcast
10:35 AM 46.4 °F 42.9 °F 41.0 °F 81% 30.20 in 10.0 mi West 6.9 mph - N/A   Overcast
10:55 AM 44.6 °F 39.7 °F 37.4 °F 76% 30.18 in 10.0 mi West 9.2 mph - N/A   Overcast
11:15 AM 44.6 °F 39.2 °F 37.4 °F 76% 30.19 in 10.0 mi West 10.4 mph - N/A   Overcast
11:35 AM 44.6 °F 37.8 °F 35.6 °F 71% 30.19 in 10.0 mi West 15.0 mph 20.7 mph N/A   Overcast
11:55 AM 42.8 °F 37.0 °F 35.6 °F 76% 30.20 in 10.0 mi West 10.4 mph 17.3 mph 0.01 in   Overcast
12:35 PM 42.8 °F 38.0 °F 37.4 °F 81% 30.20 in 10.0 mi West 8.1 mph - 0.01 in   Overcast
12:55 PM 42.8 °F 36.6 °F 35.6 °F 76% 30.19 in 10.0 mi WNW 11.5 mph 17.3 mph 0.01 in   Mostly Cloudy
1:15 PM 42.8 °F 36.2 °F 35.6 °F 76% 30.19 in 10.0 mi WSW 12.7 mph 18.4 mph N/A   Scattered Clouds
1:55 PM 42.8 °F 38.0 °F 33.8 °F 70% 30.22 in 10.0 mi West 8.1 mph - N/A   Overcast
2:15 PM 42.8 °F 37.5 °F 33.8 °F 70% 30.23 in 10.0 mi West 9.2 mph 20.7 mph N/A   Overcast
2:35 PM 42.8 °F 38.0 °F 33.8 °F 70% 30.22 in 10.0 mi NNW 8.1 mph - N/A   Overcast
2:55 PM 42.8 °F 39.3 °F 33.8 °F 70% 30.23 in 10.0 mi NNW 5.8 mph - N/A   Overcast
3:15 PM 42.8 °F 41.1 °F 32.0 °F 66% 30.25 in 10.0 mi WNW 3.5 mph - N/A   Overcast
3:35 PM 42.8 °F 39.3 °F 30.2 °F 61% 30.25 in 10.0 mi WNW 5.8 mph - N/A   Scattered Clouds
3:55 PM 42.8 °F 38.0 °F 28.4 °F 57% 30.26 in 10.0 mi West 8.1 mph - N/A   Clear
4:15 PM 42.8 °F 38.0 °F 28.4 °F 57% 30.26 in 10.0 mi West 8.1 mph - N/A   Clear
4:35 PM 41.0 °F 37.1 °F 28.4 °F 61% 30.27 in 10.0 mi West 5.8 mph - N/A   Clear
4:55 PM 39.2 °F 34.2 °F 28.4 °F 65% 30.28 in 10.0 mi West 6.9 mph - N/A   Mostly Cloudy
5:15 PM 39.2 °F 34.2 °F 28.4 °F 65% 30.28 in 10.0 mi West 6.9 mph - N/A   Overcast
5:35 PM 39.2 °F 35.0 °F 28.4 °F 65% 30.29 in 10.0 mi West 5.8 mph - N/A   Mostly Cloudy
5:55 PM 39.2 °F 34.2 °F 28.4 °F 65% 30.30 in 10.0 mi West 6.9 mph - N/A   Partly Cloudy
6:15 PM 39.2 °F 34.2 °F 26.6 °F 61% 30.31 in 10.0 mi WNW 6.9 mph - N/A   Clear
6:35 PM 39.2 °F 33.6 °F 24.8 °F 56% 30.31 in 10.0 mi NW 8.1 mph - N/A   Clear
6:55 PM 39.2 °F 37.0 °F 24.8 °F 56% 30.32 in 10.0 mi West 3.5 mph - N/A   Clear
7:15 PM 39.2 °F 35.0 °F 24.8 °F 56% 30.33 in 10.0 mi West 5.8 mph - N/A   Clear
7:35 PM 39.2 °F 35.0 °F 24.8 °F 56% 30.34 in 10.0 mi West 5.8 mph - N/A   Clear
7:55 PM 37.4 °F 32.8 °F 24.8 °F 60% 30.35 in 10.0 mi West 5.8 mph - N/A   Clear
8:15 PM 37.4 °F 33.8 °F 23.0 °F 56% 30.36 in 10.0 mi WNW 4.6 mph - N/A   Clear
8:35 PM 37.4 °F 32.8 °F 23.0 °F 56% 30.37 in 10.0 mi WNW 5.8 mph - N/A   Clear
8:55 PM 37.4 °F 32.8 °F 21.2 °F 52% 30.37 in 10.0 mi West 5.8 mph - N/A   Clear
9:15 PM 37.4 °F 34.9 °F 21.2 °F 52% 30.37 in 10.0 mi West 3.5 mph - N/A   Clear
9:35 PM 37.4 °F 33.8 °F 21.2 °F 52% 30.38 in 10.0 mi WNW 4.6 mph - N/A   Clear
9:55 PM 37.4 °F 34.9 °F 21.2 °F 52% 30.38 in 10.0 mi West 3.5 mph - N/A   Clear
10:15 PM 35.6 °F - 21.2 °F 56% 30.38 in 10.0 mi Calm Calm - N/A   Clear
10:35 PM 30.2 °F - 24.8 °F 80% 30.39 in 10.0 mi Calm Calm - N/A   Clear
10:55 PM 30.2 °F - 23.0 °F 75% 30.39 in 10.0 mi Calm Calm - N/A   Clear
11:15 PM 30.2 °F - 24.8 °F 80% 30.40 in 10.0 mi Calm Calm - N/A   Clear
11:35 PM 28.4 °F - 24.8 °F 86% 30.40 in 10.0 mi Calm Calm - N/A   Clear
11:55 PM 28.4 °F - 24.8 °F 86% 30.40 in 10.0 mi Calm Calm - N/A   Clear